カタログに戻る

SL-8 DEB

運用中LEO
NORAD 21182·DEBRIS·🇷🇺 Russia

打ち上げ Feb 12, 1991 から Plesetsk Cosmodrome

Loading…

次のパス (今後24時間)

TLE

最新Source: Space-Track

元期: Sep 14, 2026, 05:45 UTC

1 21182U 91009AV  26257.24022365  .00000105  00000-0  10825-2 0  9993
2 21182  74.0022 354.1455 0152532 166.7899 220.2451 12.22087806583808

AllMySatでSL-8 DEBをリアルタイム追跡

Download on the App Store